Starlink 4378

operational
NORAD ID: 53476 Int'l Des: 2022-099 Owner: SPXS Country: US Constellation: starlink
LEOCIRCULARRETROGRADESSO

About Starlink 4378

Description loading...

Live Position

Loading 3D Globe...

Upcoming Passes

Altitude History

Altitude vs Time

uPlot chart will show altitude changes over time

Two-Line Element Set

1 53476U 22099M 25304.27580868 .00000162 00000-0 17156-4 0 9998
2 53476 97.6025 63.5254 0002499 87.7613 272.3897 15.01262297176565
Epoch: Oct 31, 2025 • Age: 12 hours

Current Status

Altitude 565.4 km
Velocity 7.58 km/s
Sub-Earth Point 23.56°N, 70.64°W
Launch Date Aug 12, 2022
Age 3.2 years
Type internet

Technical Details

Classification Payload
Mass 300.00 kg
Dry Mass 275.00 kg
Total Mass 300.00 kg
Length 0.20 m
Diameter 2.80 m
Span 9.00 m
Shape Box + pan
Manufacturer SPXS
Bus Type Starlink
Phase Status In Orbit
Owner/State SPXS/US

Large Constellations

Loading constellations...